Location: Niedergestelen
(46.3129°N, 7.7822°E)
Time: 05:45:03
(UTC+00:00)

Okean-O - Pass Details

Date: 01 December 2020
Orbit: 639 x 640 km, 98.2° (Epoch: 18 January)

Event Time Altitude Azimuth Distance (km) Brightness Sun altitude
Rises 17:57:13 0° 164° (SSE) 2,931 6.0 -22.3°
Reaches altitude 10° 17:59:24 10° 164° (SSE) 2,027 5.1 -22.6°
Maximum altitude 18:03:50 89° 75° (ENE) 648 2.5 -23.4°
Drops below altitude 10° 18:08:17 10° 347° (NNW) 2,044 5.3 -24.2°
Sets 18:10:30 0° 347° (NNW) 2,958 6.1 -24.5°
